| time (UTC) | temp F | wind direction | speed MPH | gust MPH | rain 1hr in | rain 24hr in | rain mn in | humidity % | barometer mb |
| 20260508104350 | 50 | 204 | 2.0 | 3.0 | 0.00 | 0.00 | 0.00 | 99 | 1018.0 |
| 20260508103847 | 50 | 276 | 0.0 | 3.0 | 0.00 | 0.00 | 0.00 | 99 | 1018.0 |
| 20260508103343 | 50 | 275 | 0.0 | 1.0 | 0.00 | 0.00 | 0.00 | 99 | 1017.8 |
| 20260508102841 | 50 | 248 | 1.0 | 3.0 | 0.00 | 0.00 | 0.00 | 99 | 1017.8 |
| 20260508102339 | 50 | 244 | 0.0 | 0.0 | 0.00 | 0.00 | 0.00 | 99 | 1017.8 |
| 20260508101836 | 50 | 210 | 0.0 | 0.0 | 0.00 | 0.00 | 0.00 | 99 | 1017.9 |
| 20260508101333 | 50 | 254 | 0.0 | 0.0 | 0.00 | 0.00 | 0.00 | 99 | 1017.8 |
| 20260508100831 | 50 | 253 | 0.0 | 0.0 | 0.00 | 0.00 | 0.00 | 99 | 1017.8 |
| 20260508100329 | 50 | 271 | 0.0 | 1.0 | 0.00 | 0.00 | 0.00 | 99 | 1017.9 |
| 20260508095824 | 50 | 260 | 0.0 | 0.0 | 0.00 | 0.00 | 0.00 | 99 | 1017.9 |
| 20260508095322 | 50 | 253 | 0.0 | 0.0 | 0.00 | 0.00 | 0.00 | 99 | 1017.9 |
| 20260508094819 | 50 | 284 | 0.0 | 0.0 | 0.00 | 0.00 | 0.00 | 99 | 1017.8 |
| 20260508094316 | 50 | 258 | 0.0 | 1.0 | 0.00 | 0.00 | 0.00 | 99 | 1017.9 |
| 20260508093813 | 50 | 255 | 0.0 | 3.0 | 0.00 | 0.00 | 0.00 | 99 | 1017.8 |
| 20260508093311 | 50 | 257 | 1.0 | 1.0 | 0.00 | 0.00 | 0.00 | 99 | 1017.9 |
| 20260508092808 | 50 | 253 | 0.0 | 0.0 | 0.00 | 0.00 | 0.00 | 99 | 1017.9 |
| 20260508092313 | 50 | 258 | 0.0 | 0.0 | 0.00 | 0.00 | 0.00 | 99 | 1017.8 |
| 20260508091804 | 50 | 263 | 0.0 | 1.0 | 0.00 | 0.00 | 0.00 | 99 | 1017.9 |
| 20260508091300 | 50 | 250 | 0.0 | 1.0 | 0.00 | 0.00 | 0.00 | 99 | 1017.9 |
| 20260508090758 | 50 | 245 | 0.0 | 0.0 | 0.00 | 0.00 | 0.00 | 99 | 1017.8 |
| 20260508090256 | 50 | 257 | 0.0 | 0.0 | 0.00 | 0.00 | 0.00 | 99 | 1017.9 |
| 20260508085751 | 50 | 255 | 0.0 | 0.0 | 0.00 | 0.00 | 0.00 | 99 | 1017.9 |
| 20260508085248 | 50 | 256 | 0.0 | 0.0 | 0.00 | 0.00 | 0.00 | 99 | 1017.8 |
| 20260508084743 | 50 | 256 | 0.0 | 0.0 | 0.00 | 0.00 | 0.00 | 99 | 1017.7 |
| 20260508084241 | 50 | 253 | 0.0 | 0.0 | 0.00 | 0.00 | 0.00 | 99 | 1017.7 |
| 20260508083738 | 50 | 265 | 0.0 | 0.0 | 0.00 | 0.00 | 0.00 | 99 | 1017.8 |
| 20260508083236 | 50 | 261 | 0.0 | 0.0 | 0.00 | 0.00 | 0.00 | 99 | 1017.9 |
| 20260508082731 | 50 | 259 | 0.0 | 0.0 | 0.00 | 0.00 | 0.00 | 99 | 1017.9 |
| 20260508082229 | 50 | 247 | 0.0 | 1.0 | 0.00 | 0.00 | 0.00 | 99 | 1017.9 |
| 20260508081726 | 50 | 267 | 1.0 | 4.0 | 0.00 | 0.00 | 0.00 | 99 | 1018.0 |
| 20260508081222 | 50 | 263 | 0.0 | 1.0 | 0.00 | 0.00 | 0.00 | 99 | 1017.8 |
| 20260508080720 | 50 | 255 | 0.0 | 1.0 | 0.00 | 0.00 | 0.00 | 99 | 1017.9 |
| 20260508080218 | 50 | 253 | 0.0 | 3.0 | 0.00 | 0.00 | 0.00 | 99 | 1017.9 |
| 20260508075714 | 50 | 275 | 0.0 | 0.0 | 0.00 | 0.00 | 0.00 | 99 | 1017.8 |
| 20260508075211 | 50 | 248 | 0.0 | 0.0 | 0.00 | 0.00 | 0.00 | 99 | 1018.0 |
| 20260508074709 | 50 | 264 | 0.0 | 3.0 | 0.00 | 0.00 | 0.00 | 99 | 1018.1 |
| 20260508074207 | 51 | 237 | 2.0 | 3.0 | 0.00 | 0.00 | 0.00 | 99 | 1018.0 |
| 20260508073703 | 50 | 261 | 0.0 | 3.0 | 0.00 | 0.00 | 0.00 | 99 | 1017.9 |
| 20260508073201 | 51 | 238 | 0.0 | 1.0 | 0.00 | 0.00 | 0.00 | 99 | 1018.0 |
| 20260508072656 | 51 | 249 | 0.0 | 0.0 | 0.00 | 0.00 | 0.00 | 99 | 1017.9 |
| 20260508072153 | 51 | 267 | 0.0 | 3.0 | 0.00 | 0.00 | 0.00 | 99 | 1017.8 |
| 20260508071651 | 51 | 242 | 0.0 | 0.0 | 0.00 | 0.00 | 0.00 | 99 | 1017.8 |
| 20260508071150 | 51 | 263 | 1.0 | 3.0 | 0.00 | 0.00 | 0.00 | 99 | 1017.8 |
| 20260508070646 | 51 | 258 | 0.0 | 3.0 | 0.00 | 0.00 | 0.00 | 99 | 1017.8 |
| 20260508070145 | 51 | 273 | 1.0 | 4.0 | 0.00 | 0.00 | 0.00 | 99 | 1017.9 |
| 20260508065642 | 51 | 251 | 0.0 | 3.0 | 0.00 | 0.00 | 0.00 | 99 | 1017.8 |
| 20260508065140 | 51 | 254 | 2.0 | 3.0 | 0.00 | 0.00 | 0.00 | 99 | 1018.0 |
| 20260508064637 | 51 | 252 | 0.0 | 0.0 | 0.00 | 0.00 | 0.00 | 99 | 1017.8 |
| 20260508064135 | 51 | 244 | 0.0 | 3.0 | 0.00 | 0.00 | 0.00 | 99 | 1017.9 |
| 20260508063632 | 51 | 240 | 1.0 | 3.0 | 0.00 | 0.00 | 0.00 | 99 | 1017.8 |
| 20260508063130 | 51 | 262 | 1.0 | 5.0 | 0.00 | 0.00 | 0.00 | 99 | 1017.9 |
| 20260508062627 | 51 | 221 | 0.0 | 3.0 | 0.00 | 0.00 | 0.00 | 99 | 1017.9 |
| 20260508062124 | 51 | 257 | 0.0 | 1.0 | 0.00 | 0.00 | 0.00 | 99 | 1017.8 |
| 20260508061621 | 51 | 263 | 0.0 | 4.0 | 0.00 | 0.00 | 0.00 | 99 | 1018.0 |
| 20260508061119 | 51 | 240 | 1.0 | 5.0 | 0.00 | 0.00 | 0.00 | 99 | 1018.0 |
| 20260508060615 | 51 | 243 | 0.0 | 3.0 | 0.00 | 0.00 | 0.00 | 99 | 1017.9 |
| 20260508060112 | 51 | 243 | 0.0 | 5.0 | 0.00 | 0.00 | 0.00 | 99 | 1018.0 |
| 20260508055607 | 51 | 247 | 3.0 | 4.0 | 0.00 | 0.00 | 0.00 | 99 | 1018.1 |
| 20260508055105 | 51 | 262 | 2.0 | 5.0 | 0.00 | 0.00 | 0.00 | 99 | 1018.0 |
| 20260508054601 | 51 | 254 | 1.0 | 4.0 | 0.00 | 0.00 | 0.00 | 98 | 1017.9 |
| 20260508054059 | 51 | 265 | 4.0 | 5.0 | 0.00 | 0.00 | 0.00 | 98 | 1018.0 |
| 20260508053555 | 51 | 242 | 1.0 | 3.0 | 0.00 | 0.00 | 0.00 | 98 | 1017.9 |
| 20260508053054 | 51 | 250 | 0.0 | 3.0 | 0.00 | 0.00 | 0.00 | 98 | 1018.0 |
| 20260508052551 | 51 | 272 | 1.0 | 4.0 | 0.00 | 0.00 | 0.00 | 98 | 1018.0 |
| 20260508052048 | 52 | 267 | 3.0 | 4.0 | 0.00 | 0.00 | 0.00 | 98 | 1018.0 |
| 20260508051543 | 51 | 247 | 0.0 | 4.0 | 0.00 | 0.00 | 0.00 | 98 | 1018.1 |
| 20260508051038 | 51 | 233 | 0.0 | 5.0 | 0.00 | 0.00 | 0.00 | 97 | 1018.0 |
| 20260508050535 | 52 | 264 | 2.0 | 3.0 | 0.00 | 0.00 | 0.00 | 97 | 1018.0 |
| 20260508050033 | 52 | 262 | 2.0 | 4.0 | 0.00 | 0.00 | 0.00 | 97 | 1018.0 |
| 20260508045529 | 52 | 262 | 0.0 | 3.0 | 0.00 | 0.00 | 0.00 | 97 | 1018.0 |
| 20260508045027 | 52 | 241 | 3.0 | 4.0 | 0.00 | 0.00 | 0.00 | 97 | 1017.9 |
| 20260508044524 | 52 | 85 | 0.0 | 4.0 | 0.00 | 0.00 | 0.00 | 97 | 1018.0 |
| 20260508044019 | 52 | 258 | 0.0 | 0.0 | 0.00 | 0.00 | 0.00 | 97 | 1017.9 |
| 20260508043516 | 52 | 227 | 0.0 | 1.0 | 0.00 | 0.00 | 0.00 | 97 | 1017.9 |
| 20260508043014 | 52 | 227 | 1.0 | 3.0 | 0.00 | 0.00 | 0.00 | 98 | 1017.8 |
| 20260508042510 | 52 | 245 | 1.0 | 4.0 | 0.00 | 0.00 | 0.00 | 98 | 1017.7 |
| 20260508042008 | 52 | 246 | 0.0 | 3.0 | 0.00 | 0.00 | 0.00 | 98 | 1017.6 |
| 20260508041505 | 52 | 268 | 0.0 | 5.0 | 0.00 | 0.00 | 0.00 | 98 | 1017.6 |
| 20260508041001 | 52 | 240 | 2.0 | 3.0 | 0.00 | 0.00 | 0.00 | 98 | 1017.6 |
| 20260508040458 | 52 | 255 | 1.0 | 4.0 | 0.00 | 0.00 | 0.00 | 98 | 1017.5 |
| 20260508035956 | 52 | 245 | 0.0 | 3.0 | 0.00 | 0.00 | 0.00 | 98 | 1017.5 |
| 20260508035452 | 52 | 245 | 0.0 | 4.0 | 0.00 | 0.00 | 0.00 | 98 | 1017.4 |
| 20260508034949 | 52 | 214 | 3.0 | 5.0 | 0.00 | 0.00 | 0.00 | 97 | 1017.4 |
| 20260508034446 | 52 | 243 | 1.0 | 3.0 | 0.00 | 0.00 | 0.00 | 97 | 1017.4 |
| 20260508033943 | 52 | 275 | 0.0 | 4.0 | 0.00 | 0.00 | 0.00 | 97 | 1017.4 |
| 20260508033441 | 53 | 230 | 3.0 | 4.0 | 0.00 | 0.00 | 0.00 | 97 | 1017.4 |
| 20260508032938 | 53 | 251 | 0.0 | 4.0 | 0.00 | 0.00 | 0.00 | 97 | 1017.3 |
| 20260508032435 | 53 | 228 | 2.0 | 3.0 | 0.00 | 0.00 | 0.00 | 96 | 1017.4 |
| 20260508031932 | 53 | 241 | 4.0 | 5.0 | 0.00 | 0.00 | 0.00 | 95 | 1017.3 |
| 20260508031429 | 54 | 276 | 2.0 | 5.0 | 0.00 | 0.00 | 0.00 | 94 | 1017.2 |
| 20260508030924 | 54 | 250 | 1.0 | 4.0 | 0.00 | 0.00 | 0.00 | 94 | 1017.3 |
| 20260508030422 | 54 | 205 | 3.0 | 5.0 | 0.00 | 0.00 | 0.00 | 94 | 1017.1 |
| 20260508025919 | 54 | 246 | 2.0 | 4.0 | 0.00 | 0.00 | 0.00 | 93 | 1017.2 |
| 20260508025415 | 54 | 235 | 1.0 | 5.0 | 0.00 | 0.00 | 0.00 | 93 | 1017.0 |
| 20260508024913 | 55 | 276 | 4.0 | 5.0 | 0.00 | 0.00 | 0.00 | 91 | 1017.0 |
| 20260508024409 | 56 | 255 | 1.0 | 5.0 | 0.00 | 0.00 | 0.00 | 90 | 1017.0 |
| 20260508023906 | 56 | 275 | 2.0 | 4.0 | 0.00 | 0.00 | 0.00 | 89 | 1017.0 |
| 20260508023403 | 57 | 255 | 1.0 | 5.0 | 0.00 | 0.00 | 0.00 | 89 | 1017.0 |
| 20260508022859 | 57 | 246 | 0.0 | 4.0 | 0.00 | 0.00 | 0.00 | 88 | 1017.0 |
| 20260508022355 | 58 | 266 | 1.0 | 4.0 | 0.00 | 0.00 | 0.00 | 87 | 1016.9 |
| 20260508021852 | 58 | 251 | 1.0 | 5.0 | 0.00 | 0.00 | 0.00 | 87 | 1017.1 |
| 20260508021348 | 58 | 252 | 2.0 | 3.0 | 0.00 | 0.00 | 0.00 | 87 | 1017.2 |
| 20260508020844 | 58 | 246 | 1.0 | 3.0 | 0.00 | 0.00 | 0.00 | 87 | 1017.0 |
| 20260508020342 | 59 | 242 | 1.0 | 4.0 | 0.00 | 0.00 | 0.00 | 86 | 1017.0 |
| 20260508015839 | 58 | 226 | 2.0 | 5.0 | 0.00 | 0.00 | 0.00 | 87 | 1017.0 |
| 20260508015337 | 59 | 281 | 0.0 | 4.0 | 0.00 | 0.00 | 0.00 | 86 | 1017.0 |
| 20260508014833 | 60 | 262 | 1.0 | 4.0 | 0.00 | 0.00 | 0.00 | 83 | 1017.1 |
| 20260508014332 | 61 | 262 | 0.0 | 4.0 | 0.00 | 0.00 | 0.00 | 82 | 1017.1 |
| 20260508013831 | 61 | 238 | 3.0 | 4.0 | 0.00 | 0.00 | 0.00 | 82 | 1017.0 |
| 20260508013328 | 61 | 260 | 1.0 | 3.0 | 0.00 | 0.00 | 0.00 | 83 | 1017.1 |
| 20260508012826 | 61 | 264 | 2.0 | 4.0 | 0.00 | 0.00 | 0.00 | 82 | 1017.1 |
| 20260508012323 | 63 | 265 | 3.0 | 7.0 | 0.00 | 0.00 | 0.00 | 79 | 1017.1 |
| 20260508011820 | 62 | 247 | 1.0 | 5.0 | 0.00 | 0.00 | 0.00 | 81 | 1017.3 |
| 20260508011318 | 62 | 222 | 1.0 | 3.0 | 0.00 | 0.00 | 0.00 | 81 | 1017.3 |
| 20260508010815 | 62 | 248 | 5.0 | 7.0 | 0.00 | 0.00 | 0.00 | 80 | 1017.3 |
| 20260508010313 | 63 | 255 | 0.0 | 4.0 | 0.00 | 0.00 | 0.00 | 80 | 1017.4 |
| 20260508005809 | 63 | 254 | 2.0 | 5.0 | 0.00 | 0.00 | 0.00 | 79 | 1017.4 |
| 20260508005306 | 61 | 267 | 1.0 | 4.0 | 0.00 | 0.00 | 0.00 | 82 | 1017.5 |
| 20260508004802 | 62 | 227 | 1.0 | 5.0 | 0.00 | 0.00 | 0.00 | 79 | 1017.4 |
| 20260508004258 | 61 | 244 | 0.0 | 5.0 | 0.00 | 0.00 | 0.00 | 82 | 1017.4 |
| 20260508003755 | 62 | 204 | 4.0 | 7.0 | 0.00 | 0.00 | 0.00 | 81 | 1017.3 |
| 20260508003252 | 62 | 234 | 3.0 | 8.0 | 0.00 | 0.00 | 0.00 | 80 | 1017.4 |
| 20260508002748 | 62 | 262 | 3.0 | 7.0 | 0.00 | 0.00 | 0.00 | 80 | 1017.4 |
| 20260508002246 | 63 | 270 | 3.0 | 4.0 | 0.00 | 0.00 | 0.00 | 79 | 1017.5 |
| 20260508001742 | 65 | 246 | 3.0 | 7.0 | 0.00 | 0.00 | 0.00 | 76 | 1017.6 |
| 20260508001237 | 64 | 233 | 1.0 | 5.0 | 0.00 | 0.00 | 0.00 | 77 | 1017.6 |
| 20260508000734 | 64 | 270 | 3.0 | 7.0 | 0.00 | 0.00 | 0.00 | 77 | 1017.6 |
| 20260508000234 | 65 | 231 | 1.0 | 5.0 | 0.00 | 0.00 | 0.00 | 77 | 1017.5 |
| 20260507235727 | 64 | 245 | 1.0 | 3.0 | 0.00 | 0.00 | 0.00 | 77 | 1017.6 |
| 20260507235225 | 64 | 238 | 3.0 | 7.0 | 0.00 | 0.00 | 0.00 | 77 | 1017.5 |
| 20260507234722 | 64 | 259 | 1.0 | 5.0 | 0.00 | 0.00 | 0.00 | 76 | 1017.5 |
| 20260507234219 | 65 | 209 | 4.0 | 5.0 | 0.00 | 0.00 | 0.00 | 77 | 1017.5 |
| 20260507233715 | 65 | 227 | 3.0 | 5.0 | 0.00 | 0.00 | 0.00 | 76 | 1017.5 |
| 20260507233213 | 66 | 263 | 1.0 | 3.0 | 0.00 | 0.00 | 0.00 | 75 | 1017.6 |
| 20260507232710 | 65 | 256 | 2.0 | 3.0 | 0.00 | 0.00 | 0.00 | 75 | 1017.7 |
| 20260507232207 | 65 | 220 | 2.0 | 8.0 | 0.00 | 0.00 | 0.00 | 77 | 1017.7 |
| 20260507231704 | 64 | 242 | 1.0 | 10.0 | 0.00 | 0.00 | 0.00 | 77 | 1017.7 |
| 20260507231200 | 66 | 257 | 2.0 | 4.0 | 0.00 | 0.00 | 0.00 | 74 | 1017.7 |
| 20260507230657 | 66 | 223 | 2.0 | 5.0 | 0.00 | 0.00 | 0.00 | 74 | 1017.7 |
| 20260507230155 | 68 | 269 | 5.0 | 7.0 | 0.00 | 0.00 | 0.00 | 71 | 1017.8 |
| 20260507225654 | 66 | 249 | 3.0 | 7.0 | 0.00 | 0.00 | 0.00 | 76 | 1017.7 |
| 20260507225151 | 65 | 258 | 5.0 | 8.0 | 0.00 | 0.00 | 0.00 | 75 | 1017.7 |
| 20260507224646 | 66 | 257 | 8.0 | 11.0 | 0.00 | 0.00 | 0.00 | 76 | 1017.8 |
| 20260507224143 | 67 | 244 | 5.0 | 8.0 | 0.00 | 0.00 | 0.00 | 74 | 1017.8 |
| 20260507223639 | 67 | 259 | 1.0 | 7.0 | 0.00 | 0.00 | 0.00 | 73 | 1017.9 |
| 20260507223137 | 66 | 270 | 5.0 | 7.0 | 0.00 | 0.00 | 0.00 | 76 | 1017.9 |
| 20260507222633 | 64 | 257 | 4.0 | 8.0 | 0.00 | 0.00 | 0.00 | 78 | 1017.9 |
| 20260507222130 | 67 | 262 | 11.0 | 12.0 | 0.00 | 0.00 | 0.00 | 74 | 1017.8 |
| 20260507221626 | 65 | 247 | 4.0 | 8.0 | 0.00 | 0.00 | 0.00 | 78 | 1017.8 |
| 20260507221123 | 66 | 268 | 5.0 | 11.0 | 0.00 | 0.00 | 0.00 | 76 | 1018.0 |
| 20260507220620 | 65 | 258 | 4.0 | 5.0 | 0.00 | 0.00 | 0.00 | 78 | 1018.2 |
| 20260507220117 | 64 | 250 | 7.0 | 10.0 | 0.00 | 0.00 | 0.00 | 79 | 1018.1 |
| 20260507215613 | 66 | 235 | 6.0 | 10.0 | 0.00 | 0.00 | 0.00 | 77 | 1018.1 |
| 20260507215111 | 67 | 272 | 3.0 | 8.0 | 0.00 | 0.00 | 0.00 | 75 | 1018.2 |
| 20260507214608 | 66 | 238 | 4.0 | 7.0 | 0.00 | 0.00 | 0.00 | 76 | 1018.2 |
| 20260507214104 | 67 | 254 | 3.0 | 5.0 | 0.00 | 0.00 | 0.00 | 76 | 1018.3 |
| 20260507213601 | 65 | 289 | 3.0 | 5.0 | 0.00 | 0.00 | 0.00 | 77 | 1018.3 |
| 20260507213058 | 67 | 272 | 4.0 | 5.0 | 0.00 | 0.00 | 0.00 | 75 | 1018.6 |
| 20260507212554 | 66 | 252 | 2.0 | 3.0 | 0.00 | 0.00 | 0.00 | 79 | 1018.6 |
| 20260507212051 | 64 | 249 | 3.0 | 7.0 | 0.00 | 0.00 | 0.00 | 81 | 1018.6 |
| 20260507211547 | 65 | 259 | 6.0 | 7.0 | 0.00 | 0.00 | 0.00 | 77 | 1018.6 |
| 20260507211043 | 65 | 242 | 1.0 | 10.0 | 0.00 | 0.00 | 0.00 | 79 | 1018.7 |
| 20260507210541 | 63 | 243 | 3.0 | 10.0 | 0.00 | 0.00 | 0.00 | 82 | 1018.8 |
| 20260507210038 | 64 | 238 | 3.0 | 5.0 | 0.00 | 0.00 | 0.00 | 81 | 1018.7 |
| 20260507205534 | 65 | 246 | 8.0 | 10.0 | 0.00 | 0.00 | 0.00 | 80 | 1018.8 |
| 20260507205031 | 64 | 264 | 6.0 | 10.0 | 0.00 | 0.00 | 0.00 | 81 | 1018.9 |
| 20260507204527 | 65 | 228 | 5.0 | 11.0 | 0.00 | 0.00 | 0.00 | 81 | 1018.9 |
| 20260507204025 | 64 | 258 | 4.0 | 8.0 | 0.00 | 0.00 | 0.00 | 81 | 1018.9 |
| 20260507203523 | 63 | 276 | 3.0 | 5.0 | 0.00 | 0.00 | 0.00 | 82 | 1018.8 |
| 20260507203020 | 65 | 281 | 6.0 | 10.0 | 0.00 | 0.00 | 0.00 | 80 | 1018.8 |
| 20260507202515 | 66 | 246 | 2.0 | 5.0 | 0.00 | 0.00 | 0.00 | 80 | 1018.9 |
| 20260507202012 | 65 | 258 | 1.0 | 5.0 | 0.00 | 0.00 | 0.00 | 78 | 1018.9 |
| 20260507201508 | 65 | 244 | 5.0 | 8.0 | 0.00 | 0.00 | 0.00 | 79 | 1019.0 |
| 20260507201004 | 64 | 235 | 0.0 | 4.0 | 0.00 | 0.00 | 0.00 | 81 | 1019.0 |
| 20260507200459 | 65 | 251 | 4.0 | 5.0 | 0.00 | 0.00 | 0.00 | 79 | 1018.9 |
| 20260507195955 | 65 | 238 | 1.0 | 4.0 | 0.00 | 0.00 | 0.00 | 78 | 1019.0 |
| 20260507195453 | 65 | 256 | 3.0 | 8.0 | 0.00 | 0.00 | 0.00 | 79 | 1019.1 |
| 20260507194950 | 65 | 247 | 5.0 | 10.0 | 0.00 | 0.00 | 0.00 | 79 | 1019.1 |
| 20260507194447 | 63 | 269 | 3.0 | 8.0 | 0.00 | 0.00 | 0.00 | 81 | 1019.3 |
| 20260507193942 | 64 | 251 | 1.0 | 3.0 | 0.00 | 0.00 | 0.00 | 79 | 1019.1 |
| 20260507193440 | 62 | 245 | 2.0 | 5.0 | 0.00 | 0.00 | 0.00 | 85 | 1019.3 |
| 20260507192937 | 63 | 267 | 5.0 | 7.0 | 0.00 | 0.00 | 0.00 | 81 | 1019.2 |
| 20260507192432 | 64 | 245 | 2.0 | 4.0 | 0.00 | 0.00 | 0.00 | 80 | 1019.2 |
| 20260507191930 | 63 | 254 | 3.0 | 4.0 | 0.00 | 0.00 | 0.00 | 82 | 1019.3 |
| 20260507191426 | 63 | 254 | 3.0 | 5.0 | 0.00 | 0.00 | 0.00 | 81 | 1019.3 |
| 20260507190922 | 62 | 245 | 0.0 | 5.0 | 0.00 | 0.00 | 0.00 | 84 | 1019.3 |
| 20260507190420 | 61 | 226 | 1.0 | 4.0 | 0.00 | 0.00 | 0.00 | 83 | 1019.4 |
| 20260507185919 | 62 | 235 | 2.0 | 7.0 | 0.00 | 0.00 | 0.00 | 84 | 1019.4 |
| 20260507185416 | 61 | 246 | 1.0 | 4.0 | 0.00 | 0.00 | 0.00 | 84 | 1019.5 |
| 20260507184913 | 61 | 249 | 4.0 | 4.0 | 0.00 | 0.00 | 0.00 | 83 | 1019.5 |
| 20260507184410 | 59 | 245 | 0.0 | 1.0 | 0.00 | 0.00 | 0.00 | 86 | 1019.5 |
| 20260507183908 | 59 | 263 | 1.0 | 4.0 | 0.00 | 0.00 | 0.00 | 87 | 1019.7 |
| 20260507183404 | 59 | 213 | 0.0 | 3.0 | 0.00 | 0.00 | 0.00 | 87 | 1019.6 |
| 20260507182902 | 58 | 250 | 2.0 | 3.0 | 0.00 | 0.00 | 0.00 | 88 | 1019.7 |
| 20260507182357 | 57 | 249 | 0.0 | 4.0 | 0.00 | 0.00 | 0.00 | 90 | 1019.8 |
| 20260507181854 | 57 | 239 | 2.0 | 4.0 | 0.00 | 0.00 | 0.00 | 91 | 1019.7 |
| 20260507181350 | 57 | 254 | 0.0 | 1.0 | 0.00 | 0.00 | 0.00 | 90 | 1019.8 |
| 20260507180847 | 56 | 254 | 0.0 | 4.0 | 0.00 | 0.00 | 0.00 | 91 | 1019.6 |
| 20260507180344 | 57 | 253 | 4.0 | 5.0 | 0.00 | 0.00 | 0.00 | 88 | 1019.6 |
| 20260507175839 | 57 | 251 | 2.0 | 4.0 | 0.00 | 0.00 | 0.00 | 90 | 1019.6 |
| 20260507175337 | 57 | 250 | 1.0 | 1.0 | 0.00 | 0.00 | 0.00 | 90 | 1019.7 |
| 20260507174834 | 57 | 241 | 1.0 | 3.0 | 0.00 | 0.00 | 0.00 | 92 | 1019.5 |
| 20260507174331 | 56 | 241 | 0.0 | 0.0 | 0.00 | 0.00 | 0.00 | 92 | 1019.7 |
| 20260507173829 | 55 | 241 | 0.0 | 1.0 | 0.00 | 0.00 | 0.00 | 94 | 1019.7 |
| 20260507173326 | 55 | 241 | 0.0 | 1.0 | 0.00 | 0.00 | 0.00 | 95 | 1019.7 |
| 20260507172822 | 54 | 243 | 0.0 | 1.0 | 0.00 | 0.00 | 0.00 | 96 | 1019.7 |
| 20260507172319 | 53 | 243 | 2.0 | 3.0 | 0.00 | 0.00 | 0.00 | 98 | 1019.7 |
| 20260507171814 | 53 | 248 | 0.0 | 1.0 | 0.00 | 0.00 | 0.00 | 99 | 1019.7 |
| 20260507171312 | 53 | 248 | 0.0 | 1.0 | 0.00 | 0.00 | 0.00 | 99 | 1019.7 |
| 20260507170809 | 52 | 254 | 0.0 | 1.0 | 0.00 | 0.00 | 0.00 | 99 | 1019.6 |
| 20260507170305 | 52 | 255 | 0.0 | 5.0 | 0.00 | 0.00 | 0.00 | 99 | 1019.7 |
| 20260507165801 | 52 | 251 | 2.0 | 3.0 | 0.00 | 0.00 | 0.00 | 99 | 1019.6 |
| 20260507165257 | 52 | 250 | 1.0 | 4.0 | 0.00 | 0.00 | 0.00 | 99 | 1019.7 |
| 20260507164753 | 52 | 245 | 0.0 | 3.0 | 0.00 | 0.00 | 0.00 | 99 | 1019.8 |
| 20260507164251 | 52 | 246 | 0.0 | 1.0 | 0.00 | 0.00 | 0.00 | 99 | 1019.8 |
| 20260507163748 | 51 | 261 | 0.0 | 3.0 | 0.00 | 0.00 | 0.00 | 99 | 1019.7 |
| 20260507163246 | 51 | 242 | 0.0 | 1.0 | 0.00 | 0.00 | 0.00 | 99 | 1019.7 |
| 20260507162741 | 51 | 266 | 3.0 | 4.0 | 0.00 | 0.00 | 0.00 | 99 | 1019.7 |
| 20260507162237 | 52 | 261 | 0.0 | 0.0 | 0.00 | 0.00 | 0.00 | 99 | 1019.5 |
| 20260507161734 | 51 | 261 | 0.0 | 0.0 | 0.00 | 0.00 | 0.00 | 99 | 1019.5 |
| 20260507161231 | 51 | 240 | 0.0 | 0.0 | 0.00 | 0.00 | 0.00 | 99 | 1019.6 |
| 20260507160726 | 51 | 264 | 0.0 | 0.0 | 0.00 | 0.00 | 0.00 | 99 | 1019.5 |
| 20260507160223 | 51 | 265 | 0.0 | 0.0 | 0.00 | 0.00 | 0.00 | 99 | 1019.5 |
| 20260507155719 | 51 | 256 | 0.0 | 0.0 | 0.00 | 0.00 | 0.00 | 99 | 1019.5 |
| 20260507155215 | 51 | 246 | 0.0 | 3.0 | 0.00 | 0.00 | 0.00 | 99 | 1019.4 |
| 20260507154712 | 51 | 253 | 0.0 | 1.0 | 0.00 | 0.00 | 0.00 | 99 | 1019.5 |
| 20260507154210 | 51 | 257 | 0.0 | 1.0 | 0.00 | 0.00 | 0.00 | 99 | 1019.5 |
| 20260507153707 | 51 | 253 | 0.0 | 0.0 | 0.00 | 0.00 | 0.00 | 99 | 1019.5 |
| 20260507153203 | 51 | 252 | 0.0 | 1.0 | 0.00 | 0.00 | 0.00 | 99 | 1019.6 |
| 20260507152659 | 51 | 252 | 0.0 | 3.0 | 0.00 | 0.00 | 0.00 | 99 | 1019.5 |
| 20260507152155 | 51 | 266 | 0.0 | 0.0 | 0.00 | 0.00 | 0.00 | 99 | 1019.5 |
| 20260507151651 | 51 | 249 | 0.0 | 0.0 | 0.00 | 0.00 | 0.00 | 99 | 1019.4 |
| 20260507151148 | 51 | 253 | 0.0 | 0.0 | 0.00 | 0.00 | 0.00 | 99 | 1019.6 |
| 20260507150645 | 50 | 240 | 0.0 | 0.0 | 0.00 | 0.00 | 0.00 | 99 | 1019.5 |
| 20260507150142 | 50 | 253 | 0.0 | 0.0 | 0.00 | 0.00 | 0.00 | 99 | 1019.5 |
| 20260507145637 | 51 | 260 | 0.0 | 0.0 | 0.00 | 0.00 | 0.00 | 99 | 1019.5 |
| 20260507145135 | 51 | 259 | 0.0 | 0.0 | 0.00 | 0.00 | 0.00 | 99 | 1019.5 |
| 20260507144631 | 51 | 250 | 0.0 | 0.0 | 0.00 | 0.00 | 0.00 | 99 | 1019.6 |
| 20260507144130 | 51 | 252 | 0.0 | 0.0 | 0.00 | 0.00 | 0.00 | 99 | 1019.5 |
| 20260507143626 | 50 | 259 | 0.0 | 0.0 | 0.00 | 0.00 | 0.00 | 99 | 1019.5 |
| 20260507143123 | 50 | 207 | 0.0 | 1.0 | 0.00 | 0.00 | 0.00 | 99 | 1019.4 |
| 20260507142618 | 50 | 267 | 0.0 | 0.0 | 0.00 | 0.00 | 0.00 | 99 | 1019.3 |
| 20260507142116 | 50 | 242 | 0.0 | 0.0 | 0.00 | 0.00 | 0.00 | 99 | 1019.2 |
| 20260507141612 | 50 | 232 | 0.0 | 1.0 | 0.00 | 0.00 | 0.00 | 99 | 1019.2 |
| 20260507141109 | 51 | 236 | 1.0 | 3.0 | 0.00 | 0.00 | 0.00 | 99 | 1019.1 |
| 20260507140605 | 50 | 245 | 0.0 | 0.0 | 0.00 | 0.00 | 0.00 | 99 | 1019.1 |
| 20260507135559 | 50 | 259 | 3.0 | 4.0 | 0.00 | 0.00 | 0.00 | 99 | 1018.9 |
| 20260507135057 | 50 | 256 | 0.0 | 1.0 | 0.00 | 0.00 | 0.00 | 99 | 1018.9 |
| 20260507134553 | 50 | 256 | 0.0 | 1.0 | 0.00 | 0.00 | 0.00 | 99 | 1019.0 |
| 20260507134049 | 50 | 245 | 0.0 | 0.0 | 0.00 | 0.00 | 0.00 | 99 | 1019.0 |
| 20260507133545 | 50 | 248 | 0.0 | 4.0 | 0.00 | 0.00 | 0.00 | 99 | 1018.9 |
| 20260507133043 | 50 | 244 | 0.0 | 1.0 | 0.00 | 0.00 | 0.00 | 99 | 1018.9 |
| 20260507132540 | 50 | 251 | 0.0 | 0.0 | 0.00 | 0.00 | 0.00 | 99 | 1018.8 |
| 20260507132036 | 50 | 256 | 1.0 | 3.0 | 0.00 | 0.00 | 0.00 | 99 | 1018.8 |
| 20260507131533 | 50 | 257 | 0.0 | 1.0 | 0.00 | 0.00 | 0.00 | 99 | 1018.8 |
| 20260507131030 | 50 | 262 | 0.0 | 0.0 | 0.00 | 0.00 | 0.00 | 99 | 1018.8 |
| 20260507130527 | 50 | 253 | 0.0 | 1.0 | 0.00 | 0.00 | 0.00 | 99 | 1018.7 |
| 20260507130026 | 50 | 242 | 0.0 | 1.0 | 0.00 | 0.00 | 0.00 | 99 | 1018.6 |
| 20260507125524 | 50 | 267 | 0.0 | 1.0 | 0.00 | 0.00 | 0.00 | 99 | 1018.6 |
| 20260507125021 | 50 | 251 | 0.0 | 1.0 | 0.00 | 0.00 | 0.00 | 99 | 1018.7 |
| 20260507124517 | 50 | 255 | 0.0 | 3.0 | 0.00 | 0.00 | 0.00 | 99 | 1018.8 |
| 20260507124015 | 50 | 242 | 0.0 | 0.0 | 0.00 | 0.00 | 0.00 | 99 | 1018.7 |
| 20260507123513 | 50 | 259 | 0.0 | 0.0 | 0.00 | 0.00 | 0.00 | 99 | 1018.7 |
| 20260507123010 | 50 | 259 | 0.0 | 0.0 | 0.00 | 0.00 | 0.00 | 99 | 1018.6 |
| 20260507122504 | 50 | 245 | 0.0 | 4.0 | 0.00 | 0.00 | 0.00 | 99 | 1018.6 |
| 20260507122001 | 50 | 243 | 0.0 | 0.0 | 0.00 | 0.00 | 0.00 | 99 | 1018.6 |
| 20260507121456 | 50 | 242 | 0.0 | 0.0 | 0.00 | 0.00 | 0.00 | 99 | 1018.7 |
| 20260507120953 | 50 | 260 | 0.0 | 0.0 | 0.00 | 0.00 | 0.00 | 99 | 1018.6 |
| 20260507120449 | 50 | 274 | 0.0 | 3.0 | 0.00 | 0.00 | 0.00 | 99 | 1018.6 |
| 20260507115946 | 50 | 257 | 1.0 | 4.0 | 0.00 | 0.00 | 0.00 | 99 | 1018.6 |
| 20260507115442 | 50 | 248 | 0.0 | 1.0 | 0.00 | 0.00 | 0.00 | 99 | 1018.6 |
| 20260507114938 | 50 | 245 | 0.0 | 0.0 | 0.00 | 0.00 | 0.00 | 99 | 1018.8 |
| 20260507114434 | 50 | 242 | 0.0 | 1.0 | 0.00 | 0.00 | 0.00 | 99 | 1018.8 |
| 20260507113932 | 50 | 252 | 0.0 | 1.0 | 0.00 | 0.00 | 0.00 | 99 | 1018.7 |
| 20260507113428 | 50 | 251 | 0.0 | 1.0 | 0.00 | 0.00 | 0.00 | 99 | 1018.7 |
| 20260507112926 | 50 | 250 | 1.0 | 3.0 | 0.00 | 0.00 | 0.00 | 99 | 1018.8 |
| 20260507112423 | 50 | 245 | 3.0 | 4.0 | 0.00 | 0.00 | 0.00 | 99 | 1018.8 |
| 20260507111920 | 51 | 244 | 0.0 | 1.0 | 0.00 | 0.00 | 0.00 | 99 | 1018.9 |
| 20260507111418 | 50 | 244 | 0.0 | 3.0 | 0.00 | 0.00 | 0.00 | 99 | 1018.8 |
| 20260507110914 | 50 | 259 | 2.0 | 3.0 | 0.00 | 0.00 | 0.00 | 99 | 1019.0 |
| 20260507110410 | 50 | 262 | 0.0 | 0.0 | 0.00 | 0.00 | 0.00 | 99 | 1018.9 |
| 20260507105907 | 50 | 272 | 1.0 | 3.0 | 0.00 | 0.00 | 0.00 | 99 | 1018.9 |
| 20260507105403 | 50 | 248 | 0.0 | 0.0 | 0.00 | 0.00 | 0.00 | 99 | 1019.0 |
| 20260507104900 | 51 | 247 | 1.0 | 4.0 | 0.00 | 0.00 | 0.00 | 99 | 1018.9 |